Tracking 32140 objects as of 14-Nov-2025
HD Live streaming from Space Station
objects crossing your sky now

OBJECT B

Track OBJECT B now!
10-day predictions


NORAD ID: 65260
Int'l Code: 2025-180B
Perigee: 524.8 km
Apogee: 544.9 km
Inclination: 97.5 °
Period: 95.2 minutes
Semi major axis: 6905 km
RCS: Unknown
Launch date: August 19, 2025
Source: People's Republic of China (PRC)
Launch site: Jiuquan Satellite Launch Center, China (JSC)

Note: This is a ROCKET BODY
Your satellite tracking list
Your tracking list is empty




NASA's NSSDC Master Catalog

Two Line Element Set (TLE):
1 65260U 25180B   25316.58547094  .00010461  00000-0  59796-3 0  9995
2 65260  97.5027  81.6093 0014606 352.2909   7.8095 15.12783955 12889
Source of the keplerian elements: AFSPC